<?xml version="1.0" encoding="UTF-8" standalone="no" ?>
<gpx xmlns="http://www.topografix.com/GPX/1/1" xmlns:xsi="http://www.w3.org/2001/XMLSchema-instance" xsi:schemaLocation="http://www.topografix.com/GPX/1/1 http://www.topografix.com/GPX/1/1/gpx.xsd" version="1.1" creator="VisuGPX - https://www.visugpx.com">
  <metadata>
    <name>Montage de Lure 9 Km</name>
  </metadata>
  <wpt lat="44.11326" lon="5.88438">
    <ele>1421.9</ele>
    <name><![CDATA[Pas de Jean Richaud]]></name>
  </wpt>
  <wpt lat="44.11253" lon="5.86353">
    <ele>1492</ele>
    <name><![CDATA[Pas de la Croix]]></name>
  </wpt>
  <trk>
    <name><![CDATA[Montage de Lure 9 Km]]></name>
    <trkseg>
      <trkpt lat="44.12543" lon="5.87069">
        <ele>912</ele>
        <time>2020-06-27T14:05:22Z</time>
      </trkpt>
      <trkpt lat="44.12543" lon="5.87069">
        <ele>912</ele>
        <time>2020-06-27T14:05:22Z</time>
      </trkpt>
      <trkpt lat="44.12543" lon="5.87069">
        <ele>912</ele>
        <time>2020-06-27T14:05:22Z</time>
      </trkpt>
      <trkpt lat="44.12543" lon="5.87069">
        <ele>912</ele>
        <time>2020-06-27T14:05:22Z</time>
      </trkpt>
      <trkpt lat="44.12534" lon="5.87084">
        <ele>912</ele>
        <time>2020-06-27T14:05:22Z</time>
      </trkpt>
      <trkpt lat="44.12526" lon="5.87154">
        <ele>912</ele>
        <time>2020-06-27T14:05:22Z</time>
      </trkpt>
      <trkpt lat="44.12524" lon="5.87196">
        <ele>912</ele>
        <time>2020-06-27T14:05:22Z</time>
      </trkpt>
      <trkpt lat="44.1251" lon="5.87284">
        <ele>910</ele>
        <time>2020-06-27T14:05:22Z</time>
      </trkpt>
      <trkpt lat="44.12512" lon="5.87319">
        <ele>908</ele>
        <time>2020-06-27T14:05:22Z</time>
      </trkpt>
      <trkpt lat="44.1252" lon="5.87373">
        <ele>907</ele>
        <time>2020-06-27T14:05:22Z</time>
      </trkpt>
      <trkpt lat="44.12509" lon="5.87448">
        <ele>904</ele>
        <time>2020-06-27T14:05:22Z</time>
      </trkpt>
      <trkpt lat="44.12502" lon="5.87475">
        <ele>902</ele>
        <time>2020-06-27T14:05:22Z</time>
      </trkpt>
      <trkpt lat="44.12487" lon="5.87495">
        <ele>901</ele>
        <time>2020-06-27T14:05:22Z</time>
      </trkpt>
      <trkpt lat="44.12471" lon="5.87609">
        <ele>899</ele>
        <time>2020-06-27T14:05:22Z</time>
      </trkpt>
      <trkpt lat="44.12471" lon="5.87609">
        <ele>892</ele>
        <time>2020-06-27T14:05:22Z</time>
      </trkpt>
      <trkpt lat="44.12454" lon="5.87621">
        <ele>892</ele>
        <time>2020-06-27T14:05:22Z</time>
      </trkpt>
      <trkpt lat="44.12437" lon="5.87616">
        <ele>893</ele>
        <time>2020-06-27T14:05:22Z</time>
      </trkpt>
      <trkpt lat="44.12263" lon="5.87488">
        <ele>905</ele>
        <time>2020-06-27T14:05:22Z</time>
      </trkpt>
      <trkpt lat="44.12242" lon="5.87461">
        <ele>912</ele>
        <time>2020-06-27T14:05:22Z</time>
      </trkpt>
      <trkpt lat="44.12237" lon="5.87448">
        <ele>917</ele>
        <time>2020-06-27T14:05:22Z</time>
      </trkpt>
      <trkpt lat="44.12236" lon="5.87434">
        <ele>921</ele>
        <time>2020-06-27T14:05:22Z</time>
      </trkpt>
      <trkpt lat="44.12247" lon="5.87406">
        <ele>946.5</ele>
      </trkpt>
      <trkpt lat="44.12254" lon="5.87392">
        <ele>939.7</ele>
      </trkpt>
      <trkpt lat="44.12262" lon="5.87384">
        <ele>930</ele>
        <time>2020-06-27T14:05:22Z</time>
      </trkpt>
      <trkpt lat="44.12262" lon="5.87384">
        <ele>943</ele>
        <time>2020-06-27T14:05:22Z</time>
      </trkpt>
      <trkpt lat="44.1227" lon="5.8738">
        <ele>943</ele>
        <time>2020-06-27T14:05:22Z</time>
      </trkpt>
      <trkpt lat="44.12275" lon="5.87373">
        <ele>943</ele>
        <time>2020-06-27T14:05:22Z</time>
      </trkpt>
      <trkpt lat="44.12274" lon="5.87362">
        <ele>944</ele>
        <time>2020-06-27T14:05:22Z</time>
      </trkpt>
      <trkpt lat="44.12262" lon="5.87369">
        <ele>944</ele>
        <time>2020-06-27T14:05:22Z</time>
      </trkpt>
      <trkpt lat="44.12248" lon="5.87382">
        <ele>944</ele>
        <time>2020-06-27T14:05:22Z</time>
      </trkpt>
      <trkpt lat="44.12237" lon="5.87387">
        <ele>945</ele>
        <time>2020-06-27T14:05:22Z</time>
      </trkpt>
      <trkpt lat="44.12197" lon="5.87377">
        <ele>946</ele>
        <time>2020-06-27T14:05:22Z</time>
      </trkpt>
      <trkpt lat="44.12188" lon="5.87377">
        <ele>948</ele>
        <time>2020-06-27T14:05:22Z</time>
      </trkpt>
      <trkpt lat="44.12179" lon="5.87386">
        <ele>949</ele>
        <time>2020-06-27T14:05:22Z</time>
      </trkpt>
      <trkpt lat="44.12172" lon="5.87389">
        <ele>949</ele>
        <time>2020-06-27T14:05:22Z</time>
      </trkpt>
      <trkpt lat="44.12165" lon="5.87384">
        <ele>950</ele>
        <time>2020-06-27T14:05:22Z</time>
      </trkpt>
      <trkpt lat="44.12162" lon="5.87373">
        <ele>952</ele>
        <time>2020-06-27T14:05:22Z</time>
      </trkpt>
      <trkpt lat="44.12165" lon="5.8736">
        <ele>953</ele>
        <time>2020-06-27T14:05:22Z</time>
      </trkpt>
      <trkpt lat="44.12172" lon="5.87347">
        <ele>954</ele>
        <time>2020-06-27T14:05:22Z</time>
      </trkpt>
      <trkpt lat="44.12182" lon="5.87342">
        <ele>955</ele>
        <time>2020-06-27T14:05:22Z</time>
      </trkpt>
      <trkpt lat="44.12201" lon="5.87342">
        <ele>956</ele>
        <time>2020-06-27T14:05:22Z</time>
      </trkpt>
      <trkpt lat="44.1221" lon="5.87338">
        <ele>957</ele>
        <time>2020-06-27T14:05:22Z</time>
      </trkpt>
      <trkpt lat="44.12213" lon="5.87329">
        <ele>958</ele>
        <time>2020-06-27T14:05:22Z</time>
      </trkpt>
      <trkpt lat="44.12214" lon="5.87319">
        <ele>959</ele>
        <time>2020-06-27T14:05:22Z</time>
      </trkpt>
      <trkpt lat="44.12207" lon="5.87295">
        <ele>960</ele>
        <time>2020-06-27T14:05:22Z</time>
      </trkpt>
      <trkpt lat="44.12207" lon="5.87295">
        <ele>969</ele>
        <time>2020-06-27T14:05:22Z</time>
      </trkpt>
      <trkpt lat="44.12163" lon="5.87185">
        <ele>972</ele>
        <time>2020-06-27T14:05:22Z</time>
      </trkpt>
      <trkpt lat="44.1216" lon="5.87145">
        <ele>974</ele>
        <time>2020-06-27T14:05:22Z</time>
      </trkpt>
      <trkpt lat="44.12167" lon="5.87076">
        <ele>977</ele>
        <time>2020-06-27T14:05:22Z</time>
      </trkpt>
      <trkpt lat="44.12163" lon="5.87066">
        <ele>979</ele>
        <time>2020-06-27T14:05:22Z</time>
      </trkpt>
      <trkpt lat="44.12155" lon="5.87066">
        <ele>981</ele>
        <time>2020-06-27T14:05:22Z</time>
      </trkpt>
      <trkpt lat="44.1215" lon="5.87077">
        <ele>983</ele>
        <time>2020-06-27T14:05:22Z</time>
      </trkpt>
      <trkpt lat="44.12149" lon="5.87093">
        <ele>984</ele>
        <time>2020-06-27T14:05:22Z</time>
      </trkpt>
      <trkpt lat="44.12144" lon="5.87107">
        <ele>985</ele>
        <time>2020-06-27T14:05:22Z</time>
      </trkpt>
      <trkpt lat="44.12114" lon="5.87149">
        <ele>987</ele>
        <time>2020-06-27T14:05:22Z</time>
      </trkpt>
      <trkpt lat="44.12114" lon="5.87149">
        <ele>998</ele>
        <time>2020-06-27T14:05:22Z</time>
      </trkpt>
      <trkpt lat="44.1208" lon="5.872">
        <ele>1000</ele>
        <time>2020-06-27T14:05:22Z</time>
      </trkpt>
      <trkpt lat="44.12061" lon="5.87249">
        <ele>1002</ele>
        <time>2020-06-27T14:05:22Z</time>
      </trkpt>
      <trkpt lat="44.12054" lon="5.87253">
        <ele>1004</ele>
        <time>2020-06-27T14:05:22Z</time>
      </trkpt>
      <trkpt lat="44.12047" lon="5.87251">
        <ele>1005</ele>
        <time>2020-06-27T14:05:22Z</time>
      </trkpt>
      <trkpt lat="44.12048" lon="5.87239">
        <ele>1007</ele>
        <time>2020-06-27T14:05:22Z</time>
      </trkpt>
      <trkpt lat="44.12058" lon="5.8723">
        <ele>1008</ele>
        <time>2020-06-27T14:05:22Z</time>
      </trkpt>
      <trkpt lat="44.12058" lon="5.8723">
        <ele>1012</ele>
        <time>2020-06-27T14:05:22Z</time>
      </trkpt>
      <trkpt lat="44.12048" lon="5.87239">
        <ele>1013</ele>
        <time>2020-06-27T14:05:22Z</time>
      </trkpt>
      <trkpt lat="44.12054" lon="5.87182">
        <ele>1014</ele>
        <time>2020-06-27T14:05:22Z</time>
      </trkpt>
      <trkpt lat="44.12052" lon="5.87142">
        <ele>1015</ele>
        <time>2020-06-27T14:05:22Z</time>
      </trkpt>
      <trkpt lat="44.12055" lon="5.87104">
        <ele>1017</ele>
        <time>2020-06-27T14:05:22Z</time>
      </trkpt>
      <trkpt lat="44.12055" lon="5.87104">
        <ele>1023</ele>
        <time>2020-06-27T14:05:22Z</time>
      </trkpt>
      <trkpt lat="44.12053" lon="5.87094">
        <ele>1024</ele>
        <time>2020-06-27T14:05:22Z</time>
      </trkpt>
      <trkpt lat="44.12048" lon="5.87086">
        <ele>1024</ele>
        <time>2020-06-27T14:05:22Z</time>
      </trkpt>
      <trkpt lat="44.12039" lon="5.87088">
        <ele>1025</ele>
        <time>2020-06-27T14:05:22Z</time>
      </trkpt>
      <trkpt lat="44.12032" lon="5.87094">
        <ele>1026</ele>
        <time>2020-06-27T14:05:22Z</time>
      </trkpt>
      <trkpt lat="44.12032" lon="5.87094">
        <ele>1035</ele>
        <time>2020-06-27T14:05:22Z</time>
      </trkpt>
      <trkpt lat="44.11997" lon="5.87138">
        <ele>1037</ele>
        <time>2020-06-27T14:05:22Z</time>
      </trkpt>
      <trkpt lat="44.11956" lon="5.87176">
        <ele>1042</ele>
        <time>2020-06-27T14:05:22Z</time>
      </trkpt>
      <trkpt lat="44.11944" lon="5.87196">
        <ele>1047</ele>
        <time>2020-06-27T14:05:22Z</time>
      </trkpt>
      <trkpt lat="44.11938" lon="5.872">
        <ele>1051</ele>
        <time>2020-06-27T14:05:22Z</time>
      </trkpt>
      <trkpt lat="44.11934" lon="5.87185">
        <ele>1055</ele>
        <time>2020-06-27T14:05:22Z</time>
      </trkpt>
      <trkpt lat="44.11926" lon="5.87189">
        <ele>1058</ele>
        <time>2020-06-27T14:05:22Z</time>
      </trkpt>
      <trkpt lat="44.11921" lon="5.87198">
        <ele>1061</ele>
        <time>2020-06-27T14:05:22Z</time>
      </trkpt>
      <trkpt lat="44.11912" lon="5.87202">
        <ele>1064</ele>
        <time>2020-06-27T14:05:22Z</time>
      </trkpt>
      <trkpt lat="44.11906" lon="5.87197">
        <ele>1067</ele>
        <time>2020-06-27T14:05:22Z</time>
      </trkpt>
      <trkpt lat="44.11893" lon="5.87182">
        <ele>1070</ele>
        <time>2020-06-27T14:05:22Z</time>
      </trkpt>
      <trkpt lat="44.11885" lon="5.87187">
        <ele>1074</ele>
        <time>2020-06-27T14:05:22Z</time>
      </trkpt>
      <trkpt lat="44.11878" lon="5.8718">
        <ele>1077</ele>
        <time>2020-06-27T14:05:22Z</time>
      </trkpt>
      <trkpt lat="44.11873" lon="5.8717">
        <ele>1081</ele>
        <time>2020-06-27T14:05:22Z</time>
      </trkpt>
      <trkpt lat="44.11848" lon="5.87238">
        <ele>1087</ele>
        <time>2020-06-27T14:05:22Z</time>
      </trkpt>
      <trkpt lat="44.11838" lon="5.87229">
        <ele>1092</ele>
        <time>2020-06-27T14:05:22Z</time>
      </trkpt>
      <trkpt lat="44.11827" lon="5.87243">
        <ele>1098</ele>
        <time>2020-06-27T14:05:22Z</time>
      </trkpt>
      <trkpt lat="44.1182" lon="5.87245">
        <ele>1102</ele>
        <time>2020-06-27T14:05:22Z</time>
      </trkpt>
      <trkpt lat="44.1182" lon="5.87233">
        <ele>1106</ele>
        <time>2020-06-27T14:05:22Z</time>
      </trkpt>
      <trkpt lat="44.1181" lon="5.87238">
        <ele>1110</ele>
        <time>2020-06-27T14:05:22Z</time>
      </trkpt>
      <trkpt lat="44.118" lon="5.87254">
        <ele>1115</ele>
        <time>2020-06-27T14:05:22Z</time>
      </trkpt>
      <trkpt lat="44.11793" lon="5.87256">
        <ele>1119</ele>
        <time>2020-06-27T14:05:22Z</time>
      </trkpt>
      <trkpt lat="44.11788" lon="5.87265">
        <ele>1123</ele>
        <time>2020-06-27T14:05:22Z</time>
      </trkpt>
      <trkpt lat="44.11786" lon="5.87288">
        <ele>1127</ele>
        <time>2020-06-27T14:05:22Z</time>
      </trkpt>
      <trkpt lat="44.1178" lon="5.87297">
        <ele>1131</ele>
        <time>2020-06-27T14:05:22Z</time>
      </trkpt>
      <trkpt lat="44.11776" lon="5.87309">
        <ele>1135</ele>
        <time>2020-06-27T14:05:22Z</time>
      </trkpt>
      <trkpt lat="44.11772" lon="5.87378">
        <ele>1141</ele>
        <time>2020-06-27T14:05:22Z</time>
      </trkpt>
      <trkpt lat="44.11763" lon="5.87399">
        <ele>1146</ele>
        <time>2020-06-27T14:05:22Z</time>
      </trkpt>
      <trkpt lat="44.11738" lon="5.87428">
        <ele>1154</ele>
        <time>2020-06-27T14:05:22Z</time>
      </trkpt>
      <trkpt lat="44.11733" lon="5.87437">
        <ele>1160</ele>
        <time>2020-06-27T14:05:22Z</time>
      </trkpt>
      <trkpt lat="44.11728" lon="5.87443">
        <ele>1192</ele>
        <time>2020-06-27T14:05:22Z</time>
      </trkpt>
      <trkpt lat="44.11728" lon="5.87443">
        <ele>1192</ele>
        <time>2020-06-27T14:05:22Z</time>
      </trkpt>
      <trkpt lat="44.1172" lon="5.87462">
        <ele>1193</ele>
        <time>2020-06-27T14:05:22Z</time>
      </trkpt>
      <trkpt lat="44.11713" lon="5.87469">
        <ele>1194</ele>
        <time>2020-06-27T14:05:22Z</time>
      </trkpt>
      <trkpt lat="44.11713" lon="5.87457">
        <ele>1196</ele>
        <time>2020-06-27T14:05:22Z</time>
      </trkpt>
      <trkpt lat="44.1171" lon="5.87447">
        <ele>1197</ele>
        <time>2020-06-27T14:05:22Z</time>
      </trkpt>
      <trkpt lat="44.117" lon="5.87467">
        <ele>1199</ele>
        <time>2020-06-27T14:05:22Z</time>
      </trkpt>
      <trkpt lat="44.11699" lon="5.87477">
        <ele>1201</ele>
        <time>2020-06-27T14:05:22Z</time>
      </trkpt>
      <trkpt lat="44.11693" lon="5.8749">
        <ele>1203</ele>
        <time>2020-06-27T14:05:22Z</time>
      </trkpt>
      <trkpt lat="44.11687" lon="5.87497">
        <ele>1205</ele>
        <time>2020-06-27T14:05:22Z</time>
      </trkpt>
      <trkpt lat="44.11673" lon="5.87464">
        <ele>1208</ele>
        <time>2020-06-27T14:05:22Z</time>
      </trkpt>
      <trkpt lat="44.11673" lon="5.87464">
        <ele>1228</ele>
        <time>2020-06-27T14:05:22Z</time>
      </trkpt>
      <trkpt lat="44.11669" lon="5.87472">
        <ele>1228</ele>
        <time>2020-06-27T14:05:22Z</time>
      </trkpt>
      <trkpt lat="44.11631" lon="5.87589">
        <ele>1234</ele>
        <time>2020-06-27T14:05:22Z</time>
      </trkpt>
      <trkpt lat="44.11626" lon="5.87597">
        <ele>1238</ele>
        <time>2020-06-27T14:05:22Z</time>
      </trkpt>
      <trkpt lat="44.11587" lon="5.87701">
        <ele>1249</ele>
        <time>2020-06-27T14:05:22Z</time>
      </trkpt>
      <trkpt lat="44.11582" lon="5.87711">
        <ele>1255</ele>
        <time>2020-06-27T14:05:22Z</time>
      </trkpt>
      <trkpt lat="44.11574" lon="5.87717">
        <ele>1261</ele>
        <time>2020-06-27T14:05:22Z</time>
      </trkpt>
      <trkpt lat="44.1157" lon="5.87727">
        <ele>1265</ele>
        <time>2020-06-27T14:05:22Z</time>
      </trkpt>
      <trkpt lat="44.11554" lon="5.87742">
        <ele>1270</ele>
        <time>2020-06-27T14:05:22Z</time>
      </trkpt>
      <trkpt lat="44.11531" lon="5.87791">
        <ele>1276</ele>
        <time>2020-06-27T14:05:22Z</time>
      </trkpt>
      <trkpt lat="44.11526" lon="5.87799">
        <ele>1281</ele>
        <time>2020-06-27T14:05:22Z</time>
      </trkpt>
      <trkpt lat="44.11521" lon="5.87809">
        <ele>1286</ele>
        <time>2020-06-27T14:05:22Z</time>
      </trkpt>
      <trkpt lat="44.11506" lon="5.87903">
        <ele>1293</ele>
        <time>2020-06-27T14:05:22Z</time>
      </trkpt>
      <trkpt lat="44.11496" lon="5.87934">
        <ele>1300</ele>
        <time>2020-06-27T14:05:22Z</time>
      </trkpt>
      <trkpt lat="44.11489" lon="5.87981">
        <ele>1306</ele>
        <time>2020-06-27T14:05:22Z</time>
      </trkpt>
      <trkpt lat="44.11489" lon="5.88021">
        <ele>1311</ele>
        <time>2020-06-27T14:05:22Z</time>
      </trkpt>
      <trkpt lat="44.11485" lon="5.88055">
        <ele>1316</ele>
        <time>2020-06-27T14:05:22Z</time>
      </trkpt>
      <trkpt lat="44.11483" lon="5.88078">
        <ele>1320</ele>
        <time>2020-06-27T14:05:22Z</time>
      </trkpt>
      <trkpt lat="44.11482" lon="5.88088">
        <ele>1323</ele>
        <time>2020-06-27T14:05:22Z</time>
      </trkpt>
      <trkpt lat="44.1148" lon="5.88112">
        <ele>1326</ele>
        <time>2020-06-27T14:05:22Z</time>
      </trkpt>
      <trkpt lat="44.11477" lon="5.88123">
        <ele>1328</ele>
        <time>2020-06-27T14:05:22Z</time>
      </trkpt>
      <trkpt lat="44.11475" lon="5.88145">
        <ele>1330</ele>
        <time>2020-06-27T14:05:22Z</time>
      </trkpt>
      <trkpt lat="44.11473" lon="5.88155">
        <ele>1333</ele>
        <time>2020-06-27T14:05:22Z</time>
      </trkpt>
      <trkpt lat="44.11468" lon="5.88165">
        <ele>1335</ele>
        <time>2020-06-27T14:05:22Z</time>
      </trkpt>
      <trkpt lat="44.11466" lon="5.88176">
        <ele>1336</ele>
        <time>2020-06-27T14:05:22Z</time>
      </trkpt>
      <trkpt lat="44.1146" lon="5.88166">
        <ele>1339</ele>
        <time>2020-06-27T14:05:22Z</time>
      </trkpt>
      <trkpt lat="44.11451" lon="5.88169">
        <ele>1342</ele>
        <time>2020-06-27T14:05:22Z</time>
      </trkpt>
      <trkpt lat="44.11447" lon="5.88178">
        <ele>1345</ele>
        <time>2020-06-27T14:05:22Z</time>
      </trkpt>
      <trkpt lat="44.11422" lon="5.88204">
        <ele>1351</ele>
        <time>2020-06-27T14:05:22Z</time>
      </trkpt>
      <trkpt lat="44.1142" lon="5.88216">
        <ele>1355</ele>
        <time>2020-06-27T14:05:22Z</time>
      </trkpt>
      <trkpt lat="44.11414" lon="5.88225">
        <ele>1360</ele>
        <time>2020-06-27T14:05:22Z</time>
      </trkpt>
      <trkpt lat="44.11414" lon="5.88225">
        <ele>1388</ele>
        <time>2020-06-27T14:05:22Z</time>
      </trkpt>
      <trkpt lat="44.11407" lon="5.88246">
        <ele>1388</ele>
        <time>2020-06-27T14:05:22Z</time>
      </trkpt>
      <trkpt lat="44.11399" lon="5.88252">
        <ele>1389</ele>
        <time>2020-06-27T14:05:22Z</time>
      </trkpt>
      <trkpt lat="44.11393" lon="5.88261">
        <ele>1390</ele>
        <time>2020-06-27T14:05:22Z</time>
      </trkpt>
      <trkpt lat="44.11377" lon="5.88314">
        <ele>1393</ele>
        <time>2020-06-27T14:05:22Z</time>
      </trkpt>
      <trkpt lat="44.11371" lon="5.88322">
        <ele>1396</ele>
        <time>2020-06-27T14:05:22Z</time>
      </trkpt>
      <trkpt lat="44.11369" lon="5.88334">
        <ele>1398</ele>
        <time>2020-06-27T14:05:22Z</time>
      </trkpt>
      <trkpt lat="44.11347" lon="5.88409">
        <ele>1404</ele>
        <time>2020-06-27T14:05:22Z</time>
      </trkpt>
      <trkpt lat="44.11342" lon="5.88432">
        <ele>1408</ele>
        <time>2020-06-27T14:05:22Z</time>
      </trkpt>
      <trkpt lat="44.11339" lon="5.88442">
        <ele>1412</ele>
        <time>2020-06-27T14:05:22Z</time>
      </trkpt>
      <trkpt lat="44.11331" lon="5.88442">
        <ele>1415</ele>
        <time>2020-06-27T14:05:22Z</time>
      </trkpt>
      <trkpt lat="44.11324" lon="5.88433">
        <ele>1417</ele>
        <time>2020-06-27T14:05:22Z</time>
      </trkpt>
      <trkpt lat="44.11314" lon="5.88429">
        <ele>1420</ele>
        <time>2020-06-27T14:05:22Z</time>
      </trkpt>
      <trkpt lat="44.11324" lon="5.8849">
        <ele>1422</ele>
        <time>2020-06-27T14:05:22Z</time>
      </trkpt>
      <trkpt lat="44.11324" lon="5.8849">
        <ele>1432</ele>
        <time>2020-06-27T14:05:22Z</time>
      </trkpt>
      <trkpt lat="44.11305" lon="5.8835">
        <ele>1433</ele>
        <time>2020-06-27T14:05:22Z</time>
      </trkpt>
      <trkpt lat="44.1131" lon="5.88266">
        <ele>1436</ele>
        <time>2020-06-27T14:05:22Z</time>
      </trkpt>
      <trkpt lat="44.113" lon="5.88147">
        <ele>1442</ele>
        <time>2020-06-27T14:05:22Z</time>
      </trkpt>
      <trkpt lat="44.11267" lon="5.88069">
        <ele>1449</ele>
        <time>2020-06-27T14:05:22Z</time>
      </trkpt>
      <trkpt lat="44.11235" lon="5.87894">
        <ele>1464</ele>
        <time>2020-06-27T14:05:22Z</time>
      </trkpt>
      <trkpt lat="44.11228" lon="5.87827">
        <ele>1475</ele>
        <time>2020-06-27T14:05:22Z</time>
      </trkpt>
      <trkpt lat="44.11224" lon="5.87816">
        <ele>1481</ele>
        <time>2020-06-27T14:05:22Z</time>
      </trkpt>
      <trkpt lat="44.11212" lon="5.87716">
        <ele>1490</ele>
        <time>2020-06-27T14:05:22Z</time>
      </trkpt>
      <trkpt lat="44.11205" lon="5.87553">
        <ele>1503</ele>
        <time>2020-06-27T14:05:22Z</time>
      </trkpt>
      <trkpt lat="44.11205" lon="5.87553">
        <ele>1531</ele>
        <time>2020-06-27T14:05:22Z</time>
      </trkpt>
      <trkpt lat="44.1119" lon="5.87241">
        <ele>1532</ele>
        <time>2020-06-27T14:05:22Z</time>
      </trkpt>
      <trkpt lat="44.1122" lon="5.87027">
        <ele>1535</ele>
        <time>2020-06-27T14:05:22Z</time>
      </trkpt>
      <trkpt lat="44.1122" lon="5.87014">
        <ele>1537</ele>
        <time>2020-06-27T14:05:22Z</time>
      </trkpt>
      <trkpt lat="44.11214" lon="5.86984">
        <ele>1538</ele>
        <time>2020-06-27T14:05:22Z</time>
      </trkpt>
      <trkpt lat="44.11205" lon="5.86853">
        <ele>1539</ele>
        <time>2020-06-27T14:05:22Z</time>
      </trkpt>
      <trkpt lat="44.11167" lon="5.86725">
        <ele>1537</ele>
        <time>2020-06-27T14:05:22Z</time>
      </trkpt>
      <trkpt lat="44.11157" lon="5.86699">
        <ele>1535</ele>
        <time>2020-06-27T14:05:22Z</time>
      </trkpt>
      <trkpt lat="44.11157" lon="5.86684">
        <ele>1534</ele>
        <time>2020-06-27T14:05:22Z</time>
      </trkpt>
      <trkpt lat="44.11201" lon="5.86628">
        <ele>1531</ele>
        <time>2020-06-27T14:05:22Z</time>
      </trkpt>
      <trkpt lat="44.11218" lon="5.86616">
        <ele>1529</ele>
        <time>2020-06-27T14:05:22Z</time>
      </trkpt>
      <trkpt lat="44.1122" lon="5.86605">
        <ele>1528</ele>
        <time>2020-06-27T14:05:22Z</time>
      </trkpt>
      <trkpt lat="44.11216" lon="5.86565">
        <ele>1526</ele>
        <time>2020-06-27T14:05:22Z</time>
      </trkpt>
      <trkpt lat="44.11217" lon="5.86543">
        <ele>1524</ele>
        <time>2020-06-27T14:05:22Z</time>
      </trkpt>
      <trkpt lat="44.1122" lon="5.86533">
        <ele>1522</ele>
        <time>2020-06-27T14:05:22Z</time>
      </trkpt>
      <trkpt lat="44.11218" lon="5.86523">
        <ele>1521</ele>
        <time>2020-06-27T14:05:22Z</time>
      </trkpt>
      <trkpt lat="44.11213" lon="5.86514">
        <ele>1519</ele>
        <time>2020-06-27T14:05:22Z</time>
      </trkpt>
      <trkpt lat="44.11213" lon="5.86514">
        <ele>1510</ele>
        <time>2020-06-27T14:05:22Z</time>
      </trkpt>
      <trkpt lat="44.1121" lon="5.86504">
        <ele>1510</ele>
        <time>2020-06-27T14:05:22Z</time>
      </trkpt>
      <trkpt lat="44.11214" lon="5.86481">
        <ele>1509</ele>
        <time>2020-06-27T14:05:22Z</time>
      </trkpt>
      <trkpt lat="44.11226" lon="5.86457">
        <ele>1508</ele>
        <time>2020-06-27T14:05:22Z</time>
      </trkpt>
      <trkpt lat="44.11244" lon="5.86435">
        <ele>1507</ele>
        <time>2020-06-27T14:05:22Z</time>
      </trkpt>
      <trkpt lat="44.11256" lon="5.86406">
        <ele>1506</ele>
        <time>2020-06-27T14:05:22Z</time>
      </trkpt>
      <trkpt lat="44.11256" lon="5.86406">
        <ele>1500</ele>
        <time>2020-06-27T14:05:22Z</time>
      </trkpt>
      <trkpt lat="44.11253" lon="5.86351">
        <ele>1500</ele>
        <time>2020-06-27T14:05:22Z</time>
      </trkpt>
      <trkpt lat="44.11287" lon="5.86352">
        <ele>1499</ele>
        <time>2020-06-27T14:05:22Z</time>
      </trkpt>
      <trkpt lat="44.11296" lon="5.86358">
        <ele>1498</ele>
        <time>2020-06-27T14:05:22Z</time>
      </trkpt>
      <trkpt lat="44.113" lon="5.86332">
        <ele>1497</ele>
        <time>2020-06-27T14:05:22Z</time>
      </trkpt>
      <trkpt lat="44.11304" lon="5.86321">
        <ele>1496</ele>
        <time>2020-06-27T14:05:22Z</time>
      </trkpt>
      <trkpt lat="44.11304" lon="5.86321">
        <ele>1488</ele>
        <time>2020-06-27T14:05:22Z</time>
      </trkpt>
      <trkpt lat="44.1131" lon="5.86311">
        <ele>1488</ele>
        <time>2020-06-27T14:05:22Z</time>
      </trkpt>
      <trkpt lat="44.11318" lon="5.8629">
        <ele>1487</ele>
        <time>2020-06-27T14:05:22Z</time>
      </trkpt>
      <trkpt lat="44.11323" lon="5.86257">
        <ele>1485</ele>
        <time>2020-06-27T14:05:22Z</time>
      </trkpt>
      <trkpt lat="44.11334" lon="5.86236">
        <ele>1482</ele>
        <time>2020-06-27T14:05:22Z</time>
      </trkpt>
      <trkpt lat="44.11327" lon="5.86203">
        <ele>1468</ele>
        <time>2020-06-27T14:05:22Z</time>
      </trkpt>
      <trkpt lat="44.11335" lon="5.86171">
        <ele>1466</ele>
        <time>2020-06-27T14:05:22Z</time>
      </trkpt>
      <trkpt lat="44.11344" lon="5.86154">
        <ele>1464</ele>
        <time>2020-06-27T14:05:22Z</time>
      </trkpt>
      <trkpt lat="44.11351" lon="5.86146">
        <ele>1462</ele>
        <time>2020-06-27T14:05:22Z</time>
      </trkpt>
      <trkpt lat="44.11367" lon="5.86116">
        <ele>1458</ele>
        <time>2020-06-27T14:05:22Z</time>
      </trkpt>
      <trkpt lat="44.1137" lon="5.86107">
        <ele>1455</ele>
        <time>2020-06-27T14:05:22Z</time>
      </trkpt>
      <trkpt lat="44.11376" lon="5.861">
        <ele>1452</ele>
        <time>2020-06-27T14:05:22Z</time>
      </trkpt>
      <trkpt lat="44.11377" lon="5.8609">
        <ele>1450</ele>
        <time>2020-06-27T14:05:22Z</time>
      </trkpt>
      <trkpt lat="44.11388" lon="5.8607">
        <ele>1448</ele>
        <time>2020-06-27T14:05:22Z</time>
      </trkpt>
      <trkpt lat="44.11401" lon="5.86056">
        <ele>1445</ele>
        <time>2020-06-27T14:05:22Z</time>
      </trkpt>
      <trkpt lat="44.11404" lon="5.86046">
        <ele>1442</ele>
        <time>2020-06-27T14:05:22Z</time>
      </trkpt>
      <trkpt lat="44.11415" lon="5.86027">
        <ele>1439</ele>
        <time>2020-06-27T14:05:22Z</time>
      </trkpt>
      <trkpt lat="44.11421" lon="5.86007">
        <ele>1436</ele>
        <time>2020-06-27T14:05:22Z</time>
      </trkpt>
      <trkpt lat="44.11422" lon="5.85996">
        <ele>1433</ele>
        <time>2020-06-27T14:05:22Z</time>
      </trkpt>
      <trkpt lat="44.11443" lon="5.85944">
        <ele>1429</ele>
        <time>2020-06-27T14:05:22Z</time>
      </trkpt>
      <trkpt lat="44.11453" lon="5.85927">
        <ele>1423</ele>
        <time>2020-06-27T14:05:22Z</time>
      </trkpt>
      <trkpt lat="44.11461" lon="5.85905">
        <ele>1419</ele>
        <time>2020-06-27T14:05:22Z</time>
      </trkpt>
      <trkpt lat="44.11466" lon="5.85896">
        <ele>1414</ele>
        <time>2020-06-27T14:05:22Z</time>
      </trkpt>
      <trkpt lat="44.11485" lon="5.85841">
        <ele>1408</ele>
        <time>2020-06-27T14:05:22Z</time>
      </trkpt>
      <trkpt lat="44.11492" lon="5.85836">
        <ele>1402</ele>
        <time>2020-06-27T14:05:22Z</time>
      </trkpt>
      <trkpt lat="44.11503" lon="5.85821">
        <ele>1397</ele>
        <time>2020-06-27T14:05:22Z</time>
      </trkpt>
      <trkpt lat="44.11512" lon="5.85815">
        <ele>1392</ele>
        <time>2020-06-27T14:05:22Z</time>
      </trkpt>
      <trkpt lat="44.11532" lon="5.85794">
        <ele>1386</ele>
        <time>2020-06-27T14:05:22Z</time>
      </trkpt>
      <trkpt lat="44.11535" lon="5.85817">
        <ele>1379</ele>
        <time>2020-06-27T14:05:22Z</time>
      </trkpt>
      <trkpt lat="44.11535" lon="5.85841">
        <ele>1374</ele>
        <time>2020-06-27T14:05:22Z</time>
      </trkpt>
      <trkpt lat="44.11537" lon="5.85851">
        <ele>1369</ele>
        <time>2020-06-27T14:05:22Z</time>
      </trkpt>
      <trkpt lat="44.11542" lon="5.85862">
        <ele>1365</ele>
        <time>2020-06-27T14:05:22Z</time>
      </trkpt>
      <trkpt lat="44.1154" lon="5.85876">
        <ele>1361</ele>
        <time>2020-06-27T14:05:22Z</time>
      </trkpt>
      <trkpt lat="44.11545" lon="5.85889">
        <ele>1357</ele>
        <time>2020-06-27T14:05:22Z</time>
      </trkpt>
      <trkpt lat="44.11552" lon="5.85899">
        <ele>1353</ele>
        <time>2020-06-27T14:05:22Z</time>
      </trkpt>
      <trkpt lat="44.11554" lon="5.8591">
        <ele>1350</ele>
        <time>2020-06-27T14:05:22Z</time>
      </trkpt>
      <trkpt lat="44.11554" lon="5.85924">
        <ele>1347</ele>
        <time>2020-06-27T14:05:22Z</time>
      </trkpt>
      <trkpt lat="44.11562" lon="5.85931">
        <ele>1343</ele>
        <time>2020-06-27T14:05:22Z</time>
      </trkpt>
      <trkpt lat="44.11568" lon="5.85957">
        <ele>1338</ele>
        <time>2020-06-27T14:05:22Z</time>
      </trkpt>
      <trkpt lat="44.1157" lon="5.85996">
        <ele>1332</ele>
        <time>2020-06-27T14:05:22Z</time>
      </trkpt>
      <trkpt lat="44.11569" lon="5.86007">
        <ele>1328</ele>
        <time>2020-06-27T14:05:22Z</time>
      </trkpt>
      <trkpt lat="44.11571" lon="5.86018">
        <ele>1323</ele>
        <time>2020-06-27T14:05:22Z</time>
      </trkpt>
      <trkpt lat="44.11575" lon="5.86028">
        <ele>1319</ele>
        <time>2020-06-27T14:05:22Z</time>
      </trkpt>
      <trkpt lat="44.11583" lon="5.86067">
        <ele>1314</ele>
        <time>2020-06-27T14:05:22Z</time>
      </trkpt>
      <trkpt lat="44.11587" lon="5.86078">
        <ele>1310</ele>
        <time>2020-06-27T14:05:22Z</time>
      </trkpt>
      <trkpt lat="44.11589" lon="5.86092">
        <ele>1306</ele>
        <time>2020-06-27T14:05:22Z</time>
      </trkpt>
      <trkpt lat="44.11589" lon="5.86092">
        <ele>1283</ele>
        <time>2020-06-27T14:05:22Z</time>
      </trkpt>
      <trkpt lat="44.11609" lon="5.86139">
        <ele>1281</ele>
        <time>2020-06-27T14:05:22Z</time>
      </trkpt>
      <trkpt lat="44.11616" lon="5.86164">
        <ele>1277</ele>
        <time>2020-06-27T14:05:22Z</time>
      </trkpt>
      <trkpt lat="44.11626" lon="5.86182">
        <ele>1274</ele>
        <time>2020-06-27T14:05:22Z</time>
      </trkpt>
      <trkpt lat="44.11647" lon="5.86259">
        <ele>1268</ele>
        <time>2020-06-27T14:05:22Z</time>
      </trkpt>
      <trkpt lat="44.11683" lon="5.86308">
        <ele>1257</ele>
        <time>2020-06-27T14:05:22Z</time>
      </trkpt>
      <trkpt lat="44.11685" lon="5.86284">
        <ele>1249</ele>
        <time>2020-06-27T14:05:22Z</time>
      </trkpt>
      <trkpt lat="44.11684" lon="5.86273">
        <ele>1244</ele>
        <time>2020-06-27T14:05:22Z</time>
      </trkpt>
      <trkpt lat="44.11686" lon="5.86262">
        <ele>1240</ele>
        <time>2020-06-27T14:05:22Z</time>
      </trkpt>
      <trkpt lat="44.11687" lon="5.86243">
        <ele>1236</ele>
        <time>2020-06-27T14:05:22Z</time>
      </trkpt>
      <trkpt lat="44.11737" lon="5.86025">
        <ele>1222</ele>
        <time>2020-06-27T14:05:22Z</time>
      </trkpt>
      <trkpt lat="44.11738" lon="5.86014">
        <ele>1214</ele>
        <time>2020-06-27T14:05:22Z</time>
      </trkpt>
      <trkpt lat="44.11746" lon="5.86009">
        <ele>1208</ele>
        <time>2020-06-27T14:05:22Z</time>
      </trkpt>
      <trkpt lat="44.11743" lon="5.86025">
        <ele>1204</ele>
        <time>2020-06-27T14:05:22Z</time>
      </trkpt>
      <trkpt lat="44.11744" lon="5.86037">
        <ele>1201</ele>
        <time>2020-06-27T14:05:22Z</time>
      </trkpt>
      <trkpt lat="44.11768" lon="5.86154">
        <ele>1193</ele>
        <time>2020-06-27T14:05:22Z</time>
      </trkpt>
      <trkpt lat="44.11789" lon="5.86214">
        <ele>1184</ele>
        <time>2020-06-27T14:05:22Z</time>
      </trkpt>
      <trkpt lat="44.11799" lon="5.86262">
        <ele>1176</ele>
        <time>2020-06-27T14:05:22Z</time>
      </trkpt>
      <trkpt lat="44.11807" lon="5.86274">
        <ele>1171</ele>
        <time>2020-06-27T14:05:22Z</time>
      </trkpt>
      <trkpt lat="44.11822" lon="5.86319">
        <ele>1165</ele>
        <time>2020-06-27T14:05:22Z</time>
      </trkpt>
      <trkpt lat="44.11822" lon="5.86319">
        <ele>1145</ele>
        <time>2020-06-27T14:05:22Z</time>
      </trkpt>
      <trkpt lat="44.11808" lon="5.86277">
        <ele>1146</ele>
        <time>2020-06-27T14:05:22Z</time>
      </trkpt>
      <trkpt lat="44.11884" lon="5.86387">
        <ele>1140</ele>
        <time>2020-06-27T14:05:22Z</time>
      </trkpt>
      <trkpt lat="44.11918" lon="5.86461">
        <ele>1131</ele>
        <time>2020-06-27T14:05:22Z</time>
      </trkpt>
      <trkpt lat="44.11924" lon="5.86514">
        <ele>1124</ele>
        <time>2020-06-27T14:05:22Z</time>
      </trkpt>
      <trkpt lat="44.11945" lon="5.86565">
        <ele>1117</ele>
        <time>2020-06-27T14:05:22Z</time>
      </trkpt>
      <trkpt lat="44.11979" lon="5.86641">
        <ele>1109</ele>
        <time>2020-06-27T14:05:22Z</time>
      </trkpt>
      <trkpt lat="44.11988" lon="5.8667">
        <ele>1103</ele>
        <time>2020-06-27T14:05:22Z</time>
      </trkpt>
      <trkpt lat="44.11993" lon="5.86678">
        <ele>1099</ele>
        <time>2020-06-27T14:05:22Z</time>
      </trkpt>
      <trkpt lat="44.12001" lon="5.86706">
        <ele>1095</ele>
        <time>2020-06-27T14:05:22Z</time>
      </trkpt>
      <trkpt lat="44.12001" lon="5.86706">
        <ele>1078</ele>
        <time>2020-06-27T14:05:22Z</time>
      </trkpt>
      <trkpt lat="44.12001" lon="5.86718">
        <ele>1077</ele>
        <time>2020-06-27T14:05:22Z</time>
      </trkpt>
      <trkpt lat="44.11999" lon="5.86734">
        <ele>1077</ele>
        <time>2020-06-27T14:05:22Z</time>
      </trkpt>
      <trkpt lat="44.12004" lon="5.86863">
        <ele>1071</ele>
        <time>2020-06-27T14:05:22Z</time>
      </trkpt>
      <trkpt lat="44.12022" lon="5.86919">
        <ele>1064</ele>
        <time>2020-06-27T14:05:22Z</time>
      </trkpt>
      <trkpt lat="44.12023" lon="5.86931">
        <ele>1058</ele>
        <time>2020-06-27T14:05:22Z</time>
      </trkpt>
      <trkpt lat="44.12018" lon="5.8696">
        <ele>1055</ele>
        <time>2020-06-27T14:05:22Z</time>
      </trkpt>
      <trkpt lat="44.12017" lon="5.86984">
        <ele>1052</ele>
        <time>2020-06-27T14:05:22Z</time>
      </trkpt>
      <trkpt lat="44.12022" lon="5.87014">
        <ele>1049</ele>
        <time>2020-06-27T14:05:22Z</time>
      </trkpt>
      <trkpt lat="44.12022" lon="5.87014">
        <ele>1037</ele>
        <time>2020-06-27T14:05:22Z</time>
      </trkpt>
      <trkpt lat="44.12054" lon="5.87098">
        <ele>1034</ele>
        <time>2020-06-27T14:05:22Z</time>
      </trkpt>
      <trkpt lat="44.12055" lon="5.8711">
        <ele>1032</ele>
        <time>2020-06-27T14:05:22Z</time>
      </trkpt>
      <trkpt lat="44.12052" lon="5.87162">
        <ele>1030</ele>
        <time>2020-06-27T14:05:22Z</time>
      </trkpt>
      <trkpt lat="44.12053" lon="5.87203">
        <ele>1027</ele>
        <time>2020-06-27T14:05:22Z</time>
      </trkpt>
      <trkpt lat="44.12047" lon="5.87251">
        <ele>1025</ele>
        <time>2020-06-27T14:05:22Z</time>
      </trkpt>
      <trkpt lat="44.12047" lon="5.87251">
        <ele>1014</ele>
        <time>2020-06-27T14:05:22Z</time>
      </trkpt>
      <trkpt lat="44.12054" lon="5.87253">
        <ele>1013</ele>
        <time>2020-06-27T14:05:22Z</time>
      </trkpt>
      <trkpt lat="44.12061" lon="5.87249">
        <ele>1013</ele>
        <time>2020-06-27T14:05:22Z</time>
      </trkpt>
      <trkpt lat="44.12085" lon="5.87189">
        <ele>1012</ele>
        <time>2020-06-27T14:05:22Z</time>
      </trkpt>
      <trkpt lat="44.12144" lon="5.87107">
        <ele>1006</ele>
        <time>2020-06-27T14:05:22Z</time>
      </trkpt>
      <trkpt lat="44.12149" lon="5.87093">
        <ele>1003</ele>
        <time>2020-06-27T14:05:22Z</time>
      </trkpt>
      <trkpt lat="44.1215" lon="5.87077">
        <ele>1001</ele>
        <time>2020-06-27T14:05:22Z</time>
      </trkpt>
      <trkpt lat="44.12155" lon="5.87066">
        <ele>999</ele>
        <time>2020-06-27T14:05:22Z</time>
      </trkpt>
      <trkpt lat="44.12163" lon="5.87066">
        <ele>997</ele>
        <time>2020-06-27T14:05:22Z</time>
      </trkpt>
      <trkpt lat="44.12167" lon="5.87076">
        <ele>996</ele>
        <time>2020-06-27T14:05:22Z</time>
      </trkpt>
      <trkpt lat="44.1216" lon="5.87166">
        <ele>993</ele>
        <time>2020-06-27T14:05:22Z</time>
      </trkpt>
      <trkpt lat="44.12163" lon="5.87185">
        <ele>990</ele>
        <time>2020-06-27T14:05:22Z</time>
      </trkpt>
      <trkpt lat="44.1219" lon="5.87259">
        <ele>987</ele>
        <time>2020-06-27T14:05:22Z</time>
      </trkpt>
      <trkpt lat="44.12211" lon="5.87306">
        <ele>982</ele>
        <time>2020-06-27T14:05:22Z</time>
      </trkpt>
      <trkpt lat="44.12214" lon="5.87319">
        <ele>965</ele>
        <time>2020-06-27T14:05:22Z</time>
      </trkpt>
      <trkpt lat="44.12214" lon="5.87319">
        <ele>965</ele>
        <time>2020-06-27T14:05:22Z</time>
      </trkpt>
      <trkpt lat="44.12213" lon="5.87329">
        <ele>965</ele>
        <time>2020-06-27T14:05:22Z</time>
      </trkpt>
      <trkpt lat="44.1221" lon="5.87338">
        <ele>965</ele>
        <time>2020-06-27T14:05:22Z</time>
      </trkpt>
      <trkpt lat="44.12201" lon="5.87342">
        <ele>965</ele>
        <time>2020-06-27T14:05:22Z</time>
      </trkpt>
      <trkpt lat="44.12182" lon="5.87342">
        <ele>964</ele>
        <time>2020-06-27T14:05:22Z</time>
      </trkpt>
      <trkpt lat="44.12172" lon="5.87347">
        <ele>964</ele>
        <time>2020-06-27T14:05:22Z</time>
      </trkpt>
      <trkpt lat="44.12165" lon="5.8736">
        <ele>964</ele>
        <time>2020-06-27T14:05:22Z</time>
      </trkpt>
      <trkpt lat="44.12162" lon="5.87373">
        <ele>963</ele>
        <time>2020-06-27T14:05:22Z</time>
      </trkpt>
      <trkpt lat="44.12165" lon="5.87384">
        <ele>962</ele>
        <time>2020-06-27T14:05:22Z</time>
      </trkpt>
      <trkpt lat="44.12172" lon="5.87389">
        <ele>961</ele>
        <time>2020-06-27T14:05:22Z</time>
      </trkpt>
      <trkpt lat="44.12179" lon="5.87386">
        <ele>960</ele>
        <time>2020-06-27T14:05:22Z</time>
      </trkpt>
      <trkpt lat="44.12188" lon="5.87381">
        <ele>958.8</ele>
      </trkpt>
      <trkpt lat="44.12198" lon="5.87379">
        <ele>957.9</ele>
      </trkpt>
      <trkpt lat="44.12229" lon="5.87385">
        <ele>953</ele>
      </trkpt>
      <trkpt lat="44.12273" lon="5.87368">
        <ele>940</ele>
      </trkpt>
      <trkpt lat="44.12237" lon="5.87427">
        <ele>944.9</ele>
      </trkpt>
      <trkpt lat="44.1224" lon="5.87457">
        <ele>945</ele>
      </trkpt>
      <trkpt lat="44.12252" lon="5.87473">
        <ele>950</ele>
        <time>2020-06-27T14:05:22Z</time>
      </trkpt>
      <trkpt lat="44.12275" lon="5.875">
        <ele>945</ele>
        <time>2020-06-27T14:05:22Z</time>
      </trkpt>
      <trkpt lat="44.12411" lon="5.87596">
        <ele>931</ele>
        <time>2020-06-27T14:05:22Z</time>
      </trkpt>
      <trkpt lat="44.12411" lon="5.87596">
        <ele>901</ele>
        <time>2020-06-27T14:05:22Z</time>
      </trkpt>
      <trkpt lat="44.12448" lon="5.87621">
        <ele>899</ele>
        <time>2020-06-27T14:05:22Z</time>
      </trkpt>
      <trkpt lat="44.12471" lon="5.87609">
        <ele>897</ele>
        <time>2020-06-27T14:05:22Z</time>
      </trkpt>
      <trkpt lat="44.12479" lon="5.87563">
        <ele>897</ele>
        <time>2020-06-27T14:05:22Z</time>
      </trkpt>
      <trkpt lat="44.12487" lon="5.87495">
        <ele>897</ele>
        <time>2020-06-27T14:05:22Z</time>
      </trkpt>
      <trkpt lat="44.12502" lon="5.87475">
        <ele>897</ele>
        <time>2020-06-27T14:05:22Z</time>
      </trkpt>
      <trkpt lat="44.12509" lon="5.87448">
        <ele>897</ele>
        <time>2020-06-27T14:05:22Z</time>
      </trkpt>
      <trkpt lat="44.1252" lon="5.87373">
        <ele>898</ele>
        <time>2020-06-27T14:05:22Z</time>
      </trkpt>
      <trkpt lat="44.1252" lon="5.87357">
        <ele>899</ele>
        <time>2020-06-27T14:05:22Z</time>
      </trkpt>
      <trkpt lat="44.1251" lon="5.87301">
        <ele>900</ele>
        <time>2020-06-27T14:05:22Z</time>
      </trkpt>
      <trkpt lat="44.12512" lon="5.87267">
        <ele>901</ele>
        <time>2020-06-27T14:05:22Z</time>
      </trkpt>
      <trkpt lat="44.12526" lon="5.87172">
        <ele>904</ele>
        <time>2020-06-27T14:05:22Z</time>
      </trkpt>
      <trkpt lat="44.12532" lon="5.87096">
        <ele>906</ele>
        <time>2020-06-27T14:05:22Z</time>
      </trkpt>
      <trkpt lat="44.12537" lon="5.87062">
        <ele>907</ele>
        <time>2020-06-27T14:05:22Z</time>
      </trkpt>
      <trkpt lat="44.12536" lon="5.8705">
        <ele>908</ele>
        <time>2020-06-27T14:05:22Z</time>
      </trkpt>
      <trkpt lat="44.12542" lon="5.87037">
        <ele>912</ele>
        <time>2020-06-27T14:05:22Z</time>
      </trkpt>
    </trkseg>
  </trk>
</gpx>